Location: Arrien
(42.8963°N, 1.0429°E)
Time: 08:32:24
(UTC+00:00)

Tiangong - Pass Details

Date: 17 February 2026
Orbit: 381 x 391 km, 41.5° (Epoch: 7 March)

Event Time Altitude Azimuth Distance (km) Brightness Sun altitude
Rises 19:45:40 0° 275° (W) 2,253 3.1 -25.5°
Reaches altitude 10° 19:47:50 10° 266° (W) 1,397 1.7 -25.9°
Enters shadow 19:49:06 20° 253° (WSW) 952 0.5 -26.1°
